| time (UTC) | temp F | wind direction | speed MPH | gust MPH | rain 1hr in | rain 24hr in | rain mn in | humidity % | barometer mb |
| 20260510214131 | 68 | 88 | 9.0 | 15.0 | 0.00 | 0.00 | 0.00 | 38 | 1022.3 |
| 20260510213629 | 68 | 104 | 12.0 | 16.0 | 0.00 | 0.00 | 0.00 | 39 | 1022.3 |
| 20260510213125 | 68 | 95 | 9.0 | 11.0 | 0.00 | 0.00 | 0.00 | 39 | 1022.4 |
| 20260510212621 | 68 | 115 | 6.0 | 8.0 | 0.00 | 0.00 | 0.00 | 37 | 1022.4 |
| 20260510212119 | 69 | 46 | 4.0 | 8.0 | 0.00 | 0.00 | 0.00 | 36 | 1022.2 |
| 20260510211615 | 68 | 71 | 11.0 | 13.0 | 0.00 | 0.00 | 0.00 | 37 | 1022.4 |
| 20260510211115 | 68 | 106 | 4.0 | 6.0 | 0.00 | 0.00 | 0.00 | 38 | 1022.3 |
| 20260510210612 | 66 | 113 | 11.0 | 13.0 | 0.00 | 0.00 | 0.00 | 38 | 1022.2 |
| 20260510210108 | 67 | 158 | 9.0 | 15.0 | 0.00 | 0.00 | 0.00 | 37 | 1022.4 |
| 20260510205606 | 68 | 119 | 14.0 | 17.0 | 0.00 | 0.00 | 0.00 | 36 | 1022.0 |
| 20260510205103 | 66 | 134 | 8.0 | 13.0 | 0.00 | 0.00 | 0.00 | 38 | 1022.2 |
| 20260510204559 | 66 | 88 | 11.0 | 15.0 | 0.00 | 0.00 | 0.00 | 38 | 1022.4 |
| 20260510204056 | 67 | 128 | 12.0 | 16.0 | 0.00 | 0.00 | 0.00 | 37 | 1022.2 |
| 20260510203553 | 68 | 113 | 10.0 | 11.0 | 0.00 | 0.00 | 0.00 | 36 | 1022.3 |
| 20260510203050 | 71 | 143 | 15.0 | 19.0 | 0.00 | 0.00 | 0.00 | 34 | 1022.3 |
| 20260510202548 | 70 | 86 | 9.0 | 13.0 | 0.00 | 0.00 | 0.00 | 35 | 1022.0 |
| 20260510202045 | 67 | 104 | 7.0 | 8.0 | 0.00 | 0.00 | 0.00 | 35 | 1022.3 |
| 20260510201542 | 68 | 189 | 9.0 | 11.0 | 0.00 | 0.00 | 0.00 | 35 | 1022.3 |
| 20260510201039 | 70 | 103 | 11.0 | 13.0 | 0.00 | 0.00 | 0.00 | 33 | 1021.8 |
| 20260510200535 | 71 | 168 | 7.0 | 10.0 | 0.00 | 0.00 | 0.00 | 32 | 1021.9 |
| 20260510200033 | 71 | 126 | 11.0 | 13.0 | 0.00 | 0.00 | 0.00 | 32 | 1021.9 |
| 20260510195530 | 68 | 84 | 11.0 | 13.0 | 0.00 | 0.00 | 0.00 | 33 | 1021.4 |
| 20260510195026 | 69 | 102 | 11.0 | 15.0 | 0.00 | 0.00 | 0.00 | 33 | 1021.3 |
| 20260510194521 | 68 | 93 | 6.0 | 8.0 | 0.00 | 0.00 | 0.00 | 33 | 1021.5 |
| 20260510194018 | 69 | 124 | 4.0 | 6.0 | 0.00 | 0.00 | 0.00 | 32 | 1021.7 |
| 20260510193513 | 69 | 92 | 2.0 | 2.0 | 0.00 | 0.00 | 0.00 | 32 | 1021.4 |
| 20260510193009 | 70 | 137 | 6.0 | 8.0 | 0.00 | 0.00 | 0.00 | 30 | 1021.4 |
| 20260510192503 | 70 | 105 | 8.0 | 13.0 | 0.00 | 0.00 | 0.00 | 31 | 1021.3 |
| 20260510191959 | 69 | 112 | 6.0 | 7.0 | 0.00 | 0.00 | 0.00 | 31 | 1021.7 |
| 20260510191456 | 67 | 109 | 5.0 | 6.0 | 0.00 | 0.00 | 0.00 | 38 | 1021.7 |
| 20260510190953 | 67 | 83 | 1.0 | 2.0 | 0.00 | 0.00 | 0.00 | 35 | 1021.7 |
| 20260510190450 | 68 | 118 | 7.0 | 9.0 | 0.00 | 0.00 | 0.00 | 33 | 1021.7 |
| 20260510185947 | 68 | 144 | 7.0 | 9.0 | 0.00 | 0.00 | 0.00 | 32 | 1021.9 |
| 20260510185444 | 69 | 88 | 6.0 | 8.0 | 0.00 | 0.00 | 0.00 | 32 | 1021.7 |
| 20260510184942 | 69 | 116 | 9.0 | 11.0 | 0.00 | 0.00 | 0.00 | 31 | 1021.7 |
| 20260510184439 | 67 | 98 | 5.0 | 7.0 | 0.00 | 0.00 | 0.00 | 33 | 1021.9 |
| 20260510183938 | 67 | 104 | 7.0 | 9.0 | 0.00 | 0.00 | 0.00 | 33 | 1021.9 |
| 20260510183436 | 67 | 64 | 2.0 | 2.0 | 0.00 | 0.00 | 0.00 | 34 | 1021.7 |
| 20260510182935 | 69 | 63 | 3.0 | 3.0 | 0.00 | 0.00 | 0.00 | 32 | 1021.5 |
| 20260510182432 | 69 | 27 | 4.0 | 6.0 | 0.00 | 0.00 | 0.00 | 32 | 1021.8 |
| 20260510181927 | 67 | 76 | 5.0 | 8.0 | 0.00 | 0.00 | 0.00 | 34 | 1021.9 |
| 20260510181426 | 69 | 101 | 10.0 | 11.0 | 0.00 | 0.00 | 0.00 | 34 | 1021.8 |
| 20260510180922 | 69 | 88 | 5.0 | 8.0 | 0.00 | 0.00 | 0.00 | 33 | 1021.8 |
| 20260510180419 | 67 | 82 | 4.0 | 4.0 | 0.00 | 0.00 | 0.00 | 34 | 1021.8 |
| 20260510175916 | 69 | 132 | 6.0 | 7.0 | 0.00 | 0.00 | 0.00 | 33 | 1021.7 |
| 20260510175412 | 66 | 66 | 2.0 | 2.0 | 0.00 | 0.00 | 0.00 | 35 | 1021.9 |
| 20260510174908 | 66 | 130 | 7.0 | 9.0 | 0.00 | 0.00 | 0.00 | 36 | 1021.9 |
| 20260510174406 | 66 | 110 | 8.0 | 9.0 | 0.00 | 0.00 | 0.00 | 36 | 1021.9 |
| 20260510173902 | 67 | 97 | 4.0 | 6.0 | 0.00 | 0.00 | 0.00 | 35 | 1021.8 |
| 20260510173358 | 69 | 7 | 4.0 | 6.0 | 0.00 | 0.00 | 0.00 | 34 | 1021.9 |
| 20260510172854 | 68 | 93 | 3.0 | 3.0 | 0.00 | 0.00 | 0.00 | 34 | 1021.5 |
| 20260510172350 | 68 | 2 | 4.0 | 4.0 | 0.00 | 0.00 | 0.00 | 36 | 1021.7 |
| 20260510171846 | 68 | 72 | 5.0 | 7.0 | 0.00 | 0.00 | 0.00 | 34 | 1021.5 |
| 20260510171344 | 70 | 108 | 10.0 | 15.0 | 0.00 | 0.00 | 0.00 | 32 | 1021.4 |
| 20260510170841 | 70 | 94 | 10.0 | 15.0 | 0.00 | 0.00 | 0.00 | 33 | 1021.5 |
| 20260510170337 | 70 | 91 | 4.0 | 6.0 | 0.00 | 0.00 | 0.00 | 31 | 1021.0 |
| 20260510165832 | 69 | 120 | 5.0 | 7.0 | 0.00 | 0.00 | 0.00 | 32 | 1021.2 |
| 20260510165329 | 68 | 144 | 9.0 | 10.0 | 0.00 | 0.00 | 0.00 | 32 | 1021.2 |
| 20260510164827 | 69 | 61 | 6.0 | 8.0 | 0.00 | 0.00 | 0.00 | 32 | 1021.8 |
| 20260510164324 | 69 | 88 | 8.0 | 9.0 | 0.00 | 0.00 | 0.00 | 30 | 1021.2 |
| 20260510163823 | 69 | 100 | 8.0 | 9.0 | 0.00 | 0.00 | 0.00 | 31 | 1021.4 |
| 20260510163320 | 68 | 86 | 7.0 | 11.0 | 0.00 | 0.00 | 0.00 | 30 | 1021.3 |
| 20260510162820 | 67 | 93 | 4.0 | 6.0 | 0.00 | 0.00 | 0.00 | 31 | 1021.4 |
| 20260510162317 | 68 | 78 | 3.0 | 4.0 | 0.00 | 0.00 | 0.00 | 31 | 1021.4 |
| 20260510161813 | 68 | 106 | 3.0 | 3.0 | 0.00 | 0.00 | 0.00 | 32 | 1021.4 |
| 20260510161309 | 67 | 55 | 2.0 | 3.0 | 0.00 | 0.00 | 0.00 | 32 | 1021.5 |
| 20260510160807 | 68 | 94 | 10.0 | 13.0 | 0.00 | 0.00 | 0.00 | 32 | 1021.3 |
| 20260510160303 | 66 | 99 | 4.0 | 4.0 | 0.00 | 0.00 | 0.00 | 31 | 1021.2 |
| 20260510155803 | 66 | 99 | 6.0 | 8.0 | 0.00 | 0.00 | 0.00 | 32 | 1021.2 |
| 20260510155259 | 66 | 110 | 4.0 | 6.0 | 0.00 | 0.00 | 0.00 | 32 | 1021.2 |
| 20260510154755 | 67 | 155 | 6.0 | 7.0 | 0.00 | 0.00 | 0.00 | 32 | 1021.2 |
| 20260510154251 | 66 | 89 | 11.0 | 13.0 | 0.00 | 0.00 | 0.00 | 32 | 1021.2 |
| 20260510153746 | 67 | 96 | 7.0 | 10.0 | 0.00 | 0.00 | 0.00 | 32 | 1021.3 |
| 20260510153242 | 66 | 112 | 2.0 | 2.0 | 0.00 | 0.00 | 0.00 | 32 | 1021.3 |
| 20260510152739 | 66 | 243 | 2.0 | 3.0 | 0.00 | 0.00 | 0.00 | 33 | 1021.2 |
| 20260510152236 | 65 | 184 | 4.0 | 4.0 | 0.00 | 0.00 | 0.00 | 33 | 1021.3 |
| 20260510151732 | 64 | 127 | 4.0 | 7.0 | 0.00 | 0.00 | 0.00 | 35 | 1020.9 |
| 20260510151231 | 64 | 133 | 5.0 | 7.0 | 0.00 | 0.00 | 0.00 | 35 | 1021.2 |
| 20260510150726 | 64 | 128 | 4.0 | 4.0 | 0.00 | 0.00 | 0.00 | 34 | 1021.2 |
| 20260510150222 | 64 | 162 | 9.0 | 10.0 | 0.00 | 0.00 | 0.00 | 35 | 1021.2 |
| 20260510145718 | 63 | 143 | 4.0 | 4.0 | 0.00 | 0.00 | 0.00 | 36 | 1020.8 |
| 20260510145215 | 63 | 120 | 4.0 | 7.0 | 0.00 | 0.00 | 0.00 | 36 | 1020.9 |
| 20260510144711 | 63 | 107 | 7.0 | 8.0 | 0.00 | 0.00 | 0.00 | 36 | 1020.6 |
| 20260510144208 | 62 | 117 | 6.0 | 6.0 | 0.00 | 0.00 | 0.00 | 35 | 1020.8 |
| 20260510143702 | 62 | 86 | 4.0 | 4.0 | 0.00 | 0.00 | 0.00 | 37 | 1020.6 |
| 20260510143159 | 62 | 192 | 4.0 | 6.0 | 0.00 | 0.00 | 0.00 | 36 | 1020.9 |
| 20260510142655 | 62 | 97 | 5.0 | 6.0 | 0.00 | 0.00 | 0.00 | 36 | 1020.7 |
| 20260510142152 | 61 | 109 | 4.0 | 4.0 | 0.00 | 0.00 | 0.00 | 36 | 1020.7 |
| 20260510141649 | 62 | 131 | 5.0 | 6.0 | 0.00 | 0.00 | 0.00 | 36 | 1020.8 |
| 20260510141148 | 61 | 82 | 2.0 | 3.0 | 0.00 | 0.00 | 0.00 | 37 | 1020.4 |
| 20260510140644 | 61 | 94 | 4.0 | 4.0 | 0.00 | 0.00 | 0.00 | 36 | 1020.7 |
| 20260510140143 | 61 | 115 | 5.0 | 7.0 | 0.00 | 0.00 | 0.00 | 36 | 1020.3 |
| 20260510135638 | 60 | 126 | 6.0 | 8.0 | 0.00 | 0.00 | 0.00 | 36 | 1020.3 |
| 20260510135135 | 60 | 137 | 3.0 | 4.0 | 0.00 | 0.00 | 0.00 | 36 | 1020.3 |
| 20260510134632 | 60 | 87 | 2.0 | 3.0 | 0.00 | 0.00 | 0.00 | 37 | 1020.6 |
| 20260510134129 | 60 | 75 | 2.0 | 2.0 | 0.00 | 0.00 | 0.00 | 37 | 1020.1 |
| 20260510133625 | 59 | 79 | 2.0 | 3.0 | 0.00 | 0.00 | 0.00 | 37 | 1020.2 |
| 20260510133121 | 59 | 67 | 3.0 | 3.0 | 0.00 | 0.00 | 0.00 | 38 | 1019.9 |
| 20260510132618 | 58 | 86 | 2.0 | 4.0 | 0.00 | 0.00 | 0.00 | 38 | 1020.1 |
| 20260510132115 | 57 | 16 | 2.0 | 3.0 | 0.00 | 0.00 | 0.00 | 38 | 1019.7 |
| 20260510131612 | 57 | 38 | 1.0 | 1.0 | 0.00 | 0.00 | 0.00 | 38 | 1019.9 |
| 20260510131109 | 58 | 36 | 1.0 | 1.0 | 0.00 | 0.00 | 0.00 | 38 | 1019.9 |
| 20260510130605 | 57 | 61 | 1.0 | 1.0 | 0.00 | 0.00 | 0.00 | 38 | 1019.7 |
| 20260510125559 | 56 | 76 | 2.0 | 2.0 | 0.00 | 0.00 | 0.00 | 39 | 1019.8 |
| 20260510125056 | 57 | 94 | 2.0 | 2.0 | 0.00 | 0.00 | 0.00 | 38 | 1019.8 |
| 20260510124552 | 58 | 97 | 4.0 | 4.0 | 0.00 | 0.00 | 0.00 | 37 | 1019.6 |
| 20260510124050 | 58 | 102 | 5.0 | 6.0 | 0.00 | 0.00 | 0.00 | 37 | 1019.8 |
| 20260510123545 | 57 | 96 | 5.0 | 6.0 | 0.00 | 0.00 | 0.00 | 37 | 1019.3 |
| 20260510123041 | 57 | 83 | 2.0 | 2.0 | 0.00 | 0.00 | 0.00 | 37 | 1019.7 |
| 20260510122537 | 57 | 80 | 1.0 | 1.0 | 0.00 | 0.00 | 0.00 | 36 | 1019.4 |
| 20260510122033 | 58 | 51 | 2.0 | 2.0 | 0.00 | 0.00 | 0.00 | 36 | 1019.4 |
| 20260510121531 | 58 | 51 | 1.0 | 2.0 | 0.00 | 0.00 | 0.00 | 35 | 1019.2 |
| 20260510121028 | 59 | 60 | 1.0 | 1.0 | 0.00 | 0.00 | 0.00 | 34 | 1019.2 |
| 20260510120525 | 59 | 86 | 2.0 | 2.0 | 0.00 | 0.00 | 0.00 | 34 | 1019.3 |
| 20260510120021 | 60 | 78 | 2.0 | 2.0 | 0.00 | 0.00 | 0.00 | 33 | 1019.2 |
| 20260510115518 | 60 | 47 | 1.0 | 1.0 | 0.00 | 0.00 | 0.00 | 33 | 1019.0 |
| 20260510115014 | 60 | 130 | 4.0 | 4.0 | 0.00 | 0.00 | 0.00 | 32 | 1018.8 |
| 20260510114510 | 60 | 95 | 4.0 | 4.0 | 0.00 | 0.00 | 0.00 | 32 | 1018.8 |
| 20260510114006 | 60 | 95 | 3.0 | 4.0 | 0.00 | 0.00 | 0.00 | 33 | 1019.0 |
| 20260510113502 | 60 | 145 | 4.0 | 7.0 | 0.00 | 0.00 | 0.00 | 33 | 1019.1 |
| 20260510113000 | 60 | 182 | 3.0 | 4.0 | 0.00 | 0.00 | 0.00 | 33 | 1019.4 |
| 20260510112457 | 60 | 105 | 4.0 | 6.0 | 0.00 | 0.00 | 0.00 | 33 | 1019.4 |
| 20260510111953 | 60 | 262 | 5.0 | 7.0 | 0.00 | 0.00 | 0.00 | 34 | 1019.6 |
| 20260510111449 | 59 | 284 | 3.0 | 3.0 | 0.00 | 0.00 | 0.00 | 32 | 1019.8 |
| 20260510110945 | 59 | 344 | 2.0 | 2.0 | 0.00 | 0.00 | 0.00 | 32 | 1019.9 |
| 20260510110442 | 60 | 284 | 2.0 | 2.0 | 0.00 | 0.00 | 0.00 | 32 | 1019.6 |
| 20260510105937 | 61 | 329 | 1.0 | 1.0 | 0.00 | 0.00 | 0.00 | 30 | 1019.2 |
| 20260510105432 | 61 | 331 | 1.0 | 2.0 | 0.00 | 0.00 | 0.00 | 30 | 1019.3 |
| 20260510104928 | 62 | 275 | 3.0 | 3.0 | 0.00 | 0.00 | 0.00 | 30 | 1019.1 |
| 20260510104425 | 62 | 347 | 2.0 | 2.0 | 0.00 | 0.00 | 0.00 | 29 | 1018.6 |
| 20260510103922 | 60 | 248 | 6.0 | 8.0 | 0.00 | 0.00 | 0.00 | 30 | 1018.8 |
| 20260510103420 | 60 | 217 | 2.0 | 3.0 | 0.00 | 0.00 | 0.00 | 27 | 1019.0 |
| 20260510102914 | 58 | 42 | 2.0 | 3.0 | 0.00 | 0.00 | 0.00 | 29 | 1018.3 |
| 20260510102410 | 57 | 20 | 0.0 | 0.0 | 0.00 | 0.00 | 0.00 | 30 | 1018.6 |
| 20260510101907 | 56 | 17 | 0.0 | 0.0 | 0.00 | 0.00 | 0.00 | 30 | 1018.2 |
| 20260510101406 | 56 | 0 | 0.0 | 0.0 | 0.00 | 0.00 | 0.00 | 31 | 1018.5 |
| 20260510100903 | 57 | 2 | 0.0 | 0.0 | 0.00 | 0.00 | 0.00 | 30 | 1018.3 |
| 20260510100359 | 58 | 359 | 0.0 | 0.0 | 0.00 | 0.00 | 0.00 | 30 | 1018.1 |
| 20260510095856 | 59 | 347 | 0.0 | 0.0 | 0.00 | 0.00 | 0.00 | 29 | 1018.1 |
| 20260510095350 | 58 | 336 | 2.0 | 2.0 | 0.00 | 0.00 | 0.00 | 28 | 1018.1 |
| 20260510094850 | 56 | 355 | 0.0 | 0.0 | 0.00 | 0.00 | 0.00 | 30 | 1018.5 |
| 20260510094345 | 57 | 0 | 0.0 | 0.0 | 0.00 | 0.00 | 0.00 | 30 | 1018.1 |
| 20260510093842 | 57 | 0 | 0.0 | 0.0 | 0.00 | 0.00 | 0.00 | 30 | 1018.3 |
| 20260510093338 | 56 | 328 | 2.0 | 2.0 | 0.00 | 0.00 | 0.00 | 30 | 1018.5 |
| 20260510092834 | 56 | 341 | 1.0 | 2.0 | 0.00 | 0.00 | 0.00 | 30 | 1018.2 |
| 20260510092330 | 55 | 358 | 0.0 | 0.0 | 0.00 | 0.00 | 0.00 | 30 | 1018.2 |
| 20260510091826 | 55 | 3 | 0.0 | 0.0 | 0.00 | 0.00 | 0.00 | 31 | 1018.0 |
| 20260510091324 | 55 | 4 | 0.0 | 0.0 | 0.00 | 0.00 | 0.00 | 30 | 1017.8 |
| 20260510090820 | 55 | 4 | 0.0 | 0.0 | 0.00 | 0.00 | 0.00 | 30 | 1018.0 |
| 20260510090317 | 55 | 351 | 0.0 | 0.0 | 0.00 | 0.00 | 0.00 | 30 | 1018.1 |
| 20260510085813 | 55 | 350 | 1.0 | 1.0 | 0.00 | 0.00 | 0.00 | 31 | 1018.2 |
| 20260510085313 | 56 | 339 | 1.0 | 1.0 | 0.00 | 0.00 | 0.00 | 30 | 1018.0 |
| 20260510084808 | 56 | 6 | 0.0 | 0.0 | 0.00 | 0.00 | 0.00 | 29 | 1017.7 |
| 20260510084306 | 55 | 344 | 0.0 | 1.0 | 0.00 | 0.00 | 0.00 | 29 | 1017.8 |
| 20260510083802 | 55 | 353 | 0.0 | 0.0 | 0.00 | 0.00 | 0.00 | 30 | 1017.6 |
| 20260510083259 | 55 | 2 | 0.0 | 0.0 | 0.00 | 0.00 | 0.00 | 30 | 1017.6 |
| 20260510082755 | 56 | 2 | 0.0 | 0.0 | 0.00 | 0.00 | 0.00 | 29 | 1017.3 |
| 20260510082252 | 56 | 4 | 0.0 | 0.0 | 0.00 | 0.00 | 0.00 | 28 | 1017.3 |
| 20260510081750 | 56 | 3 | 0.0 | 0.0 | 0.00 | 0.00 | 0.00 | 29 | 1017.6 |
| 20260510081247 | 57 | 3 | 0.0 | 0.0 | 0.00 | 0.00 | 0.00 | 29 | 1017.6 |
| 20260510080742 | 57 | 7 | 0.0 | 0.0 | 0.00 | 0.00 | 0.00 | 28 | 1017.3 |
| 20260510080238 | 58 | 6 | 0.0 | 0.0 | 0.00 | 0.00 | 0.00 | 28 | 1017.2 |
| 20260510075735 | 58 | 22 | 0.0 | 1.0 | 0.00 | 0.00 | 0.00 | 27 | 1017.3 |
| 20260510075233 | 57 | 21 | 0.0 | 0.0 | 0.00 | 0.00 | 0.00 | 27 | 1017.3 |
| 20260510074730 | 57 | 356 | 0.0 | 0.0 | 0.00 | 0.00 | 0.00 | 27 | 1017.2 |
| 20260510074226 | 58 | 18 | 0.0 | 0.0 | 0.00 | 0.00 | 0.00 | 27 | 1017.1 |
| 20260510073722 | 58 | 6 | 0.0 | 0.0 | 0.00 | 0.00 | 0.00 | 26 | 1017.2 |
| 20260510073218 | 58 | 246 | 3.0 | 3.0 | 0.00 | 0.00 | 0.00 | 27 | 1017.3 |
| 20260510072714 | 59 | 14 | 0.0 | 0.0 | 0.00 | 0.00 | 0.00 | 26 | 1017.3 |
| 20260510072211 | 57 | 326 | 1.0 | 2.0 | 0.00 | 0.00 | 0.00 | 27 | 1017.3 |
| 20260510071708 | 57 | 350 | 0.0 | 0.0 | 0.00 | 0.00 | 0.00 | 27 | 1017.2 |
| 20260510071204 | 57 | 355 | 0.0 | 0.0 | 0.00 | 0.00 | 0.00 | 26 | 1017.2 |
| 20260510070702 | 57 | 353 | 0.0 | 0.0 | 0.00 | 0.00 | 0.00 | 26 | 1017.3 |
| 20260510070159 | 57 | 341 | 0.0 | 0.0 | 0.00 | 0.00 | 0.00 | 25 | 1017.2 |
| 20260510065654 | 58 | 288 | 1.0 | 1.0 | 0.00 | 0.00 | 0.00 | 25 | 1017.2 |
| 20260510065151 | 59 | 349 | 0.0 | 1.0 | 0.00 | 0.00 | 0.00 | 24 | 1017.0 |
| 20260510064647 | 60 | 347 | 0.0 | 0.0 | 0.00 | 0.00 | 0.00 | 24 | 1017.0 |
| 20260510064144 | 61 | 315 | 2.0 | 2.0 | 0.00 | 0.00 | 0.00 | 23 | 1016.9 |
| 20260510063642 | 60 | 301 | 1.0 | 1.0 | 0.00 | 0.00 | 0.00 | 23 | 1017.1 |
| 20260510063138 | 59 | 358 | 0.0 | 0.0 | 0.00 | 0.00 | 0.00 | 23 | 1017.1 |
| 20260510062634 | 58 | 3 | 0.0 | 1.0 | 0.00 | 0.00 | 0.00 | 23 | 1017.0 |
| 20260510062130 | 59 | 350 | 0.0 | 1.0 | 0.00 | 0.00 | 0.00 | 23 | 1017.1 |
| 20260510061626 | 60 | 354 | 0.0 | 0.0 | 0.00 | 0.00 | 0.00 | 23 | 1016.9 |
| 20260510061124 | 62 | 355 | 0.0 | 1.0 | 0.00 | 0.00 | 0.00 | 21 | 1017.0 |
| 20260510060619 | 62 | 338 | 1.0 | 1.0 | 0.00 | 0.00 | 0.00 | 21 | 1016.6 |
| 20260510060116 | 62 | 334 | 2.0 | 3.0 | 0.00 | 0.00 | 0.00 | 21 | 1016.9 |
| 20260510055612 | 62 | 8 | 4.0 | 4.0 | 0.00 | 0.00 | 0.00 | 21 | 1016.7 |
| 20260510055110 | 61 | 349 | 1.0 | 2.0 | 0.00 | 0.00 | 0.00 | 21 | 1016.4 |
| 20260510054606 | 61 | 352 | 1.0 | 2.0 | 0.00 | 0.00 | 0.00 | 21 | 1016.9 |
| 20260510054101 | 61 | 355 | 0.0 | 1.0 | 0.00 | 0.00 | 0.00 | 21 | 1016.2 |
| 20260510053601 | 61 | 357 | 0.0 | 1.0 | 0.00 | 0.00 | 0.00 | 21 | 1016.4 |
| 20260510053058 | 61 | 356 | 0.0 | 1.0 | 0.00 | 0.00 | 0.00 | 21 | 1016.2 |
| 20260510052553 | 62 | 357 | 1.0 | 2.0 | 0.00 | 0.00 | 0.00 | 21 | 1016.5 |
| 20260510052050 | 62 | 330 | 1.0 | 2.0 | 0.00 | 0.00 | 0.00 | 21 | 1016.4 |
| 20260510051545 | 62 | 340 | 1.0 | 1.0 | 0.00 | 0.00 | 0.00 | 21 | 1016.4 |
| 20260510051043 | 63 | 350 | 2.0 | 2.0 | 0.00 | 0.00 | 0.00 | 20 | 1016.2 |
| 20260510050540 | 64 | 352 | 0.0 | 1.0 | 0.00 | 0.00 | 0.00 | 20 | 1016.5 |
| 20260510050037 | 64 | 324 | 2.0 | 4.0 | 0.00 | 0.00 | 0.00 | 20 | 1016.2 |
| 20260510045534 | 63 | 317 | 3.0 | 4.0 | 0.00 | 0.00 | 0.00 | 20 | 1016.5 |
| 20260510045030 | 64 | 14 | 1.0 | 1.0 | 0.00 | 0.00 | 0.00 | 20 | 1016.2 |
| 20260510044527 | 65 | 308 | 1.0 | 2.0 | 0.00 | 0.00 | 0.00 | 19 | 1016.4 |
| 20260510044024 | 66 | 307 | 3.0 | 3.0 | 0.00 | 0.00 | 0.00 | 19 | 1016.1 |
| 20260510043520 | 67 | 310 | 4.0 | 4.0 | 0.00 | 0.00 | 0.00 | 18 | 1016.0 |
| 20260510043015 | 67 | 327 | 4.0 | 6.0 | 0.00 | 0.00 | 0.00 | 18 | 1016.1 |
| 20260510042509 | 67 | 284 | 5.0 | 6.0 | 0.00 | 0.00 | 0.00 | 18 | 1016.2 |
| 20260510042005 | 67 | 328 | 5.0 | 7.0 | 0.00 | 0.00 | 0.00 | 19 | 1016.2 |
| 20260510041502 | 66 | 306 | 5.0 | 8.0 | 0.00 | 0.00 | 0.00 | 19 | 1016.2 |
| 20260510041000 | 66 | 292 | 2.0 | 3.0 | 0.00 | 0.00 | 0.00 | 21 | 1016.2 |
| 20260510040456 | 66 | 314 | 2.0 | 2.0 | 0.00 | 0.00 | 0.00 | 21 | 1016.1 |
| 20260510035951 | 67 | 310 | 3.0 | 3.0 | 0.00 | 0.00 | 0.00 | 20 | 1016.1 |
| 20260510035449 | 68 | 342 | 1.0 | 1.0 | 0.00 | 0.00 | 0.00 | 20 | 1015.9 |
| 20260510034948 | 69 | 346 | 2.0 | 2.0 | 0.00 | 0.00 | 0.00 | 19 | 1015.9 |
| 20260510034447 | 69 | 248 | 2.0 | 2.0 | 0.00 | 0.00 | 0.00 | 20 | 1015.9 |
| 20260510033943 | 69 | 300 | 2.0 | 2.0 | 0.00 | 0.00 | 0.00 | 19 | 1015.7 |
| 20260510033439 | 69 | 262 | 6.0 | 7.0 | 0.00 | 0.00 | 0.00 | 19 | 1016.0 |
| 20260510032936 | 67 | 247 | 8.0 | 14.0 | 0.00 | 0.00 | 0.00 | 21 | 1016.0 |
| 20260510032433 | 67 | 323 | 1.0 | 1.0 | 0.00 | 0.00 | 0.00 | 21 | 1015.9 |
| 20260510031928 | 67 | 301 | 1.0 | 2.0 | 0.00 | 0.00 | 0.00 | 21 | 1016.1 |
| 20260510031424 | 68 | 306 | 1.0 | 1.0 | 0.00 | 0.00 | 0.00 | 21 | 1015.9 |
| 20260510030919 | 68 | 301 | 2.0 | 2.0 | 0.00 | 0.00 | 0.00 | 21 | 1015.7 |
| 20260510030415 | 68 | 265 | 3.0 | 4.0 | 0.00 | 0.00 | 0.00 | 21 | 1015.7 |
| 20260510025913 | 68 | 254 | 5.0 | 7.0 | 0.00 | 0.00 | 0.00 | 21 | 1015.9 |
| 20260510025410 | 68 | 288 | 3.0 | 3.0 | 0.00 | 0.00 | 0.00 | 21 | 1015.7 |
| 20260510024907 | 69 | 294 | 3.0 | 4.0 | 0.00 | 0.00 | 0.00 | 20 | 1015.5 |
| 20260510024404 | 69 | 297 | 5.0 | 6.0 | 0.00 | 0.00 | 0.00 | 20 | 1015.6 |
| 20260510023900 | 70 | 242 | 4.0 | 4.0 | 0.00 | 0.00 | 0.00 | 20 | 1015.4 |
| 20260510023356 | 70 | 245 | 9.0 | 14.0 | 0.00 | 0.00 | 0.00 | 20 | 1015.6 |
| 20260510022854 | 70 | 274 | 6.0 | 7.0 | 0.00 | 0.00 | 0.00 | 20 | 1015.5 |
| 20260510022353 | 70 | 305 | 6.0 | 8.0 | 0.00 | 0.00 | 0.00 | 20 | 1015.5 |
| 20260510021851 | 71 | 323 | 2.0 | 3.0 | 0.00 | 0.00 | 0.00 | 19 | 1015.0 |
| 20260510021350 | 71 | 293 | 3.0 | 3.0 | 0.00 | 0.00 | 0.00 | 19 | 1015.0 |
| 20260510020846 | 71 | 287 | 5.0 | 7.0 | 0.00 | 0.00 | 0.00 | 19 | 1014.9 |
| 20260510020346 | 71 | 247 | 4.0 | 6.0 | 0.00 | 0.00 | 0.00 | 19 | 1015.1 |
| 20260510015842 | 71 | 310 | 11.0 | 14.0 | 0.00 | 0.00 | 0.00 | 19 | 1014.9 |
| 20260510015338 | 71 | 278 | 6.0 | 8.0 | 0.00 | 0.00 | 0.00 | 19 | 1015.0 |
| 20260510014833 | 71 | 274 | 6.0 | 7.0 | 0.00 | 0.00 | 0.00 | 18 | 1014.9 |
| 20260510014331 | 72 | 277 | 5.0 | 7.0 | 0.00 | 0.00 | 0.00 | 18 | 1014.9 |
| 20260510013827 | 72 | 280 | 7.0 | 9.0 | 0.00 | 0.00 | 0.00 | 17 | 1015.0 |
| 20260510013323 | 72 | 276 | 9.0 | 9.0 | 0.00 | 0.00 | 0.00 | 17 | 1014.8 |
| 20260510012818 | 72 | 282 | 6.0 | 7.0 | 0.00 | 0.00 | 0.00 | 17 | 1014.6 |
| 20260510012317 | 73 | 274 | 6.0 | 10.0 | 0.00 | 0.00 | 0.00 | 17 | 1014.3 |
| 20260510011812 | 73 | 274 | 5.0 | 6.0 | 0.00 | 0.00 | 0.00 | 16 | 1014.6 |
| 20260510011308 | 73 | 281 | 5.0 | 7.0 | 0.00 | 0.00 | 0.00 | 16 | 1014.5 |
| 20260510010805 | 73 | 268 | 6.0 | 7.0 | 0.00 | 0.00 | 0.00 | 16 | 1014.5 |
| 20260510010302 | 74 | 226 | 6.0 | 8.0 | 0.00 | 0.00 | 0.00 | 16 | 1014.4 |
| 20260510005759 | 74 | 219 | 6.0 | 8.0 | 0.00 | 0.00 | 0.00 | 16 | 1014.4 |
| 20260510005255 | 75 | 234 | 8.0 | 11.0 | 0.00 | 0.00 | 0.00 | 16 | 1014.4 |
| 20260510004753 | 75 | 287 | 8.0 | 9.0 | 0.00 | 0.00 | 0.00 | 15 | 1014.5 |
| 20260510004250 | 75 | 240 | 5.0 | 6.0 | 0.00 | 0.00 | 0.00 | 15 | 1014.5 |
| 20260510003748 | 75 | 306 | 5.0 | 8.0 | 0.00 | 0.00 | 0.00 | 14 | 1014.3 |
| 20260510003244 | 75 | 275 | 4.0 | 6.0 | 0.00 | 0.00 | 0.00 | 15 | 1014.1 |
| 20260510002743 | 75 | 284 | 6.0 | 7.0 | 0.00 | 0.00 | 0.00 | 14 | 1014.3 |
| 20260510002240 | 75 | 316 | 5.0 | 7.0 | 0.00 | 0.00 | 0.00 | 14 | 1014.6 |
| 20260510001737 | 76 | 281 | 5.0 | 9.0 | 0.00 | 0.00 | 0.00 | 14 | 1014.6 |
| 20260510001236 | 75 | 261 | 6.0 | 7.0 | 0.00 | 0.00 | 0.00 | 14 | 1014.5 |
| 20260510000731 | 76 | 268 | 8.0 | 9.0 | 0.00 | 0.00 | 0.00 | 14 | 1014.5 |
| 20260510000229 | 77 | 257 | 6.0 | 8.0 | 0.00 | 0.00 | 0.00 | 14 | 1014.4 |
| 20260509235725 | 78 | 322 | 8.0 | 11.0 | 0.00 | 0.00 | 0.00 | 13 | 1014.4 |
| 20260509235222 | 78 | 270 | 7.0 | 8.0 | 0.00 | 0.00 | 0.00 | 13 | 1014.1 |
| 20260509234718 | 78 | 351 | 6.0 | 7.0 | 0.00 | 0.00 | 0.00 | 13 | 1014.1 |
| 20260509234215 | 78 | 288 | 9.0 | 11.0 | 0.00 | 0.00 | 0.00 | 13 | 1014.5 |
| 20260509233713 | 78 | 343 | 6.0 | 8.0 | 0.00 | 0.00 | 0.00 | 13 | 1014.6 |
| 20260509233210 | 79 | 309 | 11.0 | 15.0 | 0.00 | 0.00 | 0.00 | 13 | 1014.5 |
| 20260509232706 | 80 | 307 | 7.0 | 8.0 | 0.00 | 0.00 | 0.00 | 13 | 1014.3 |
| 20260509232203 | 78 | 301 | 8.0 | 11.0 | 0.00 | 0.00 | 0.00 | 13 | 1014.5 |
| 20260509231700 | 79 | 269 | 7.0 | 8.0 | 0.00 | 0.00 | 0.00 | 13 | 1014.6 |
| 20260509231158 | 79 | 311 | 7.0 | 8.0 | 0.00 | 0.00 | 0.00 | 13 | 1014.5 |
| 20260509230655 | 77 | 303 | 7.0 | 8.0 | 0.00 | 0.00 | 0.00 | 13 | 1014.6 |
| 20260509230151 | 76 | 307 | 8.0 | 9.0 | 0.00 | 0.00 | 0.00 | 13 | 1014.6 |
| 20260509225647 | 77 | 270 | 4.0 | 4.0 | 0.00 | 0.00 | 0.00 | 13 | 1014.6 |
| 20260509225143 | 80 | 273 | 6.0 | 7.0 | 0.00 | 0.00 | 0.00 | 13 | 1014.8 |
| 20260509224638 | 80 | 280 | 8.0 | 9.0 | 0.00 | 0.00 | 0.00 | 13 | 1014.6 |
| 20260509224135 | 79 | 281 | 11.0 | 14.0 | 0.00 | 0.00 | 0.00 | 13 | 1014.6 |
| 20260509223632 | 79 | 307 | 6.0 | 8.0 | 0.00 | 0.00 | 0.00 | 13 | 1014.5 |
| 20260509223130 | 80 | 247 | 11.0 | 13.0 | 0.00 | 0.00 | 0.00 | 13 | 1014.6 |
| 20260509222626 | 80 | 260 | 10.0 | 11.0 | 0.00 | 0.00 | 0.00 | 13 | 1015.0 |
| 20260509222122 | 80 | 222 | 8.0 | 9.0 | 0.00 | 0.00 | 0.00 | 13 | 1014.8 |
| 20260509221618 | 79 | 269 | 5.0 | 6.0 | 0.00 | 0.00 | 0.00 | 14 | 1015.0 |
| 20260509221114 | 79 | 249 | 11.0 | 16.0 | 0.00 | 0.00 | 0.00 | 14 | 1014.6 |
| 20260509220610 | 81 | 275 | 7.0 | 8.0 | 0.00 | 0.00 | 0.00 | 13 | 1014.8 |
| 20260509220107 | 80 | 266 | 9.0 | 10.0 | 0.00 | 0.00 | 0.00 | 13 | 1014.9 |
| 20260509215602 | 80 | 264 | 13.0 | 16.0 | 0.00 | 0.00 | 0.00 | 13 | 1014.8 |
| 20260509215059 | 79 | 281 | 12.0 | 14.0 | 0.00 | 0.00 | 0.00 | 14 | 1015.3 |
| 20260509214556 | 78 | 274 | 6.0 | 10.0 | 0.00 | 0.00 | 0.00 | 14 | 1014.9 |